Tracking 17151 objects as of 4-May-2015
HD Live streaming from Space Station

COSMOS 2251 DEB

Track COSMOS 2251 DEB now!
10-day predictions
COSMOS 2251 DEB is classified as:


NORAD ID: 33899
Int'l Code: 1993-036DC
Perigee: 696.1 km
Apogee: 805.2 km
Inclination: 74.1 °
Period: 99.7 minutes
Semi major axis: 7121 km
RCS: 0.032 m2 (small)
Launch date: June 16, 1993
Source: Commonwealth of Independent States (former USSR) (CIS)

Note: This is SATELLITE DEBRIS
Your satellite tracking list
Your tracking list is empty





NASA's NSSDC Master Catalog

Two Line Element Set (TLE):
1 33899U 93036DC  15122.53323953  .00001333  00000-0  37945-3 0  9998
2 33899 074.0580 140.1333 0076601 110.2503 052.3899 14.44548947327069

Source of the keplerian elements: AFSPC

N2YO: 2773